When you browse on this site, cookies collect data to enhance your experience and personalize the content and advertising you see.
Visit our Privacy Policy to learn more. By continuing to use the site, you agree to this use of cookies and data.
  • In Romania
  • List of Countries
  • For 7 days
  • Water Temperature
  • Satellite Maps
  • Weather Map
  • Weather Widgets
  • user-avatar
    Login

    Hourly Weather Tehran

    Today, 21 November, Wednesday

    Time Temperature Precipitation Wind Pressure Humidity
    00:00 +10°C° 0 mm 0 mps 663 mmHg 65%
    01:00 +10°C° 0 mm 0 mps 663 mmHg 65%
    02:00 +10°C° 0 mm 0 mps 662 mmHg 65%
    03:00 +11°C° 0 mm 1 mps 662 mmHg 65%
    04:00 +11°C° 0 mm 1 mps 662 mmHg 65%
    05:00 +11°C° 0 mm 1 mps 662 mmHg 65%
    06:00 +10°C° 0 mm 1 mps 662 mmHg 65%
    07:00 +11°C° 0.1 mm 1 mps 662 mmHg 61%
    08:00 +12°C° 0.1 mm 1 mps 663 mmHg 57%
    09:00 +13°C° 0.1 mm 1 mps 663 mmHg 53%
    10:00 +14°C° 0.1 mm 1 mps 663 mmHg 51%
    11:00 +14°C° 0.1 mm 2 mps 663 mmHg 48%
    12:00 +15°C° 0.1 mm 2 mps 663 mmHg 45%
    13:00 +15°C° 0.1 mm 2 mps 663 mmHg 44%
    14:00 +15°C° 0.1 mm 2 mps 663 mmHg 42%
    15:00 +16°C° 0.1 mm 2 mps 662 mmHg 41%
    16:00 +15°C° 0 mm 2 mps 662 mmHg 42%
    17:00 +14°C° 0 mm 2 mps 662 mmHg 44%
    18:00 +13°C° 0 mm 1 mps 662 mmHg 45%
    19:00 +13°C° 0 mm 1 mps 662 mmHg 45%
    20:00 +13°C° 0 mm 1 mps 662 mmHg 44%
    21:00 +12°C° 0 mm 1 mps 662 mmHg 44%
    22:00 +12°C° 0 mm 1 mps 662 mmHg 45%
    23:00 +12°C° 0 mm 1 mps 662 mmHg 46%

    Tomorrow, 22 November, Thursday

    Time Temperature Precipitation Wind Pressure Humidity
    00:00 +11°C° 0 mm 1 mps 662 mmHg 47%
    01:00 +11°C° 0 mm 1 mps 662 mmHg 48%
    02:00 +11°C° 0 mm 1 mps 662 mmHg 49%
    03:00 +11°C° 0 mm 1 mps 662 mmHg 50%
    04:00 +11°C° 0 mm 1 mps 662 mmHg 52%
    05:00 +11°C° 0 mm 1 mps 662 mmHg 53%
    06:00 +10°C° 0 mm 1 mps 662 mmHg 55%
    07:00 +10°C° 0 mm 2 mps 662 mmHg 53%
    08:00 +12°C° 0 mm 2 mps 663 mmHg 51%
    09:00 +13°C° 0 mm 2 mps 663 mmHg 48%
    10:00 +14°C° 0 mm 2 mps 663 mmHg 48%
    11:00 +15°C° 0 mm 2 mps 663 mmHg 47%
    12:00 +14°C° 0 mm 3 mps 663 mmHg 46%
    13:00 +16°C° 0 mm 3 mps 663 mmHg 46%
    14:00 +16°C° 0 mm 3 mps 662 mmHg 46%
    15:00 +16°C° 0 mm 3 mps 662 mmHg 46%
    16:00 +14°C° 0 mm 3 mps 662 mmHg 48%
    17:00 +14°C° 0 mm 2 mps 662 mmHg 50%
    18:00 +14°C° 0 mm 2 mps 662 mmHg 52%
    19:00 +14°C° 0 mm 2 mps 662 mmHg 53%
    20:00 +13°C° 0 mm 2 mps 663 mmHg 54%
    21:00 +13°C° 0 mm 2 mps 663 mmHg 55%
    22:00 +13°C° 0 mm 1 mps 662 mmHg 57%
    23:00 +12°C° 0 mm 1 mps 662 mmHg 58%

    Day after tomorrow, 23 November, Friday

    Time Temperature Precipitation Wind Pressure Humidity
    00:00 +12°C° 0 mm 1 mps 662 mmHg 60%
    01:00 +12°C° 0 mm 1 mps 662 mmHg 60%
    02:00 +12°C° 0 mm 1 mps 662 mmHg 60%
    03:00 +12°C° 0 mm 1 mps 662 mmHg 60%
    04:00 +12°C° 0 mm 1 mps 662 mmHg 59%
    05:00 +12°C° 0 mm 1 mps 662 mmHg 58%
    06:00 +11°C° 0 mm 1 mps 662 mmHg 57%
    07:00 +12°C° 0 mm 1 mps 663 mmHg 52%
    08:00 +14°C° 0 mm 1 mps 664 mmHg 47%
    09:00 +15°C° 0 mm 1 mps 664 mmHg 42%
    10:00 +15°C° 0 mm 2 mps 664 mmHg 41%
    11:00 +16°C° 0 mm 2 mps 664 mmHg 39%
    12:00 +16°C° 0 mm 2 mps 664 mmHg 38%
    13:00 +16°C° 0 mm 2 mps 664 mmHg 38%
    14:00 +17°C° 0 mm 2 mps 664 mmHg 38%
    15:00 +17°C° 0 mm 2 mps 664 mmHg 38%
    16:00 +16°C° 0 mm 1 mps 664 mmHg 40%
    17:00 +15°C° 0 mm 1 mps 664 mmHg 42%
    18:00 +15°C° 0 mm 1 mps 664 mmHg 44%
    19:00 +14°C° 0.3 mm 1 mps 664 mmHg 48%
    20:00 +14°C° 0.3 mm 1 mps 664 mmHg 52%
    21:00 +13°C° 0.3 mm 1 mps 665 mmHg 55%
    22:00 +13°C° 1.1 mm 2 mps 665 mmHg 60%
    23:00 +12°C° 1.1 mm 2 mps 665 mmHg 65%

    24 November, Saturday

    Time Temperature Precipitation Wind Pressure Humidity
    00:00 +11°C° 1.1 mm 3 mps 664 mmHg 70%
    01:00 +11°C° 1.2 mm 3 mps 665 mmHg 71%
    02:00 +12°C° 1.2 mm 2 mps 665 mmHg 73%
    03:00 +10°C° 1.2 mm 2 mps 665 mmHg 75%
    04:00 +10°C° 1.1 mm 2 mps 665 mmHg 76%
    05:00 +10°C° 1.1 mm 2 mps 666 mmHg 77%
    06:00 +10°C° 1.1 mm 2 mps 667 mmHg 78%
    07:00 +10°C° 0.7 mm 2 mps 668 mmHg 77%
    08:00 +10°C° 0.7 mm 2 mps 669 mmHg 76%
    09:00 +10°C° 0.7 mm 2 mps 669 mmHg 75%
    10:00 +12°C° 0.1 mm 2 mps 670 mmHg 72%
    11:00 +12°C° 0.1 mm 2 mps 670 mmHg 70%
    12:00 +13°C° 0.1 mm 1 mps 670 mmHg 67%
    13:00 +13°C° 0.1 mm 2 mps 670 mmHg 66%
    14:00 +13°C° 0.1 mm 2 mps 670 mmHg 66%
    15:00 +13°C° 0.1 mm 2 mps 670 mmHg 65%
    16:00 +13°C° 0.1 mm 2 mps 670 mmHg 67%
    17:00 +12°C° 0.1 mm 2 mps 670 mmHg 69%
    18:00 +12°C° 0.1 mm 2 mps 670 mmHg 71%
    19:00 +10°C° 1 mm 2 mps 670 mmHg 75%
    20:00 +10°C° 1 mm 2 mps 670 mmHg 79%
    21:00 +9°C° 1 mm 2 mps 670 mmHg 83%
    22:00 +10°C° 0.9 mm 2 mps 670 mmHg 82%
    23:00 +10°C° 0.9 mm 2 mps 670 mmHg 81%

    25 November, Sunday

    Time Temperature Precipitation Wind Pressure Humidity
    00:00 +10°C° 0.9 mm 2 mps 669 mmHg 80%
    01:00 +10°C° 0.4 mm 2 mps 669 mmHg 79%
    02:00 +10°C° 0.4 mm 2 mps 669 mmHg 78%
    03:00 +10°C° 0.4 mm 2 mps 668 mmHg 77%
    04:00 +10°C° 0.1 mm 2 mps 668 mmHg 76%
    05:00 +10°C° 0.1 mm 3 mps 667 mmHg 75%
    06:00 +10°C° 0.1 mm 3 mps 667 mmHg 74%
    07:00 +10°C° 0 mm 3 mps 667 mmHg 73%
    08:00 +11°C° 0 mm 3 mps 667 mmHg 71%
    09:00 +11°C° 0 mm 3 mps 666 mmHg 70%
    10:00 +11°C° 0.6 mm 3 mps 666 mmHg 73%
    11:00 +11°C° 0.6 mm 3 mps 665 mmHg 75%
    12:00 +10°C° 0.6 mm 3 mps 664 mmHg 78%
    13:00 +10°C° 1 mm 3 mps 664 mmHg 78%
    14:00 +10°C° 1 mm 3 mps 664 mmHg 78%
    15:00 +10°C° 1 mm 2 mps 663 mmHg 78%
    16:00 +10°C° 0.4 mm 2 mps 663 mmHg 78%
    17:00 +10°C° 0.4 mm 2 mps 663 mmHg 79%
    18:00 +10°C° 0.4 mm 2 mps 663 mmHg 80%
    19:00 +10°C° 0.2 mm 2 mps 663 mmHg 80%
    20:00 +10°C° 0.2 mm 2 mps 663 mmHg 80%
    21:00 +11°C° 0.2 mm 1 mps 663 mmHg 80%
    22:00 +10°C° 0 mm 1 mps 662 mmHg 81%
    23:00 +10°C° 0 mm 1 mps 662 mmHg 81%

    26 November, Monday

    Time Temperature Precipitation Wind Pressure Humidity
    00:00 +10°C° 0 mm 1 mps 662 mmHg 82%
    01:00 +9°C° 0 mm 1 mps 662 mmHg 81%
    02:00 +9°C° 0 mm 1 mps 661 mmHg 81%
    03:00 +9°C° 0 mm 1 mps 661 mmHg 80%
    04:00 +9°C° 0 mm 1 mps 661 mmHg 80%
    05:00 +9°C° 0 mm 1 mps 661 mmHg 80%
    06:00 +9°C° 0 mm 1 mps 661 mmHg 79%
    07:00 +10°C° 0 mm 1 mps 662 mmHg 77%
    08:00 +9°C° 0 mm 2 mps 662 mmHg 75%
    09:00 +10°C° 0 mm 2 mps 662 mmHg 73%
    10:00 +12°C° 0 mm 2 mps 662 mmHg 71%
    11:00 +12°C° 0 mm 3 mps 662 mmHg 68%
    12:00 +12°C° 0 mm 3 mps 662 mmHg 66%
    13:00 +13°C° 0 mm 4 mps 662 mmHg 64%
    14:00 +13°C° 0 mm 4 mps 662 mmHg 62%
    15:00 +13°C° 0 mm 4 mps 662 mmHg 60%
    16:00 +12°C° 0 mm 3 mps 662 mmHg 61%
    17:00 +11°C° 0 mm 3 mps 662 mmHg 62%
    18:00 +10°C° 0 mm 2 mps 663 mmHg 63%
    19:00 +10°C° 0 mm 2 mps 663 mmHg 63%
    20:00 +9°C° 0 mm 2 mps 663 mmHg 63%
    21:00 +10°C° 0 mm 1 mps 663 mmHg 62%
    22:00 +10°C° 0 mm 1 mps 663 mmHg 62%
    23:00 +9°C° 0 mm 1 mps 663 mmHg 63%
    Show more